User: anonymous   Login
Location: Los Gatos B&B
(42.6926°N, 77.0646°W)
Time: 19:29:33
(UTC-04:00)
Language:

SL-16 R/B - Orbit

View from above orbital plane
View from above orbital plane
View from above satellite
View from above satellite

Ground track
Ground track

The orbit data is extracted from the following two-line orbital elements,

1 28353U 04021B   18109.56094473 -.00000211 +00000-0 -85804-4 0  9990
2 28353 071.0003 155.9416 0002470 095.2524 264.8880 14.14208603715463
Epoch (UTC): 19 April 2018 13:27:45
Eccentricity: 0.0002470
inclination: 71.0003°
perigee height: 843 km
apogee height: 847 km
right ascension of ascending node: 155.9416°
argument of perigee: 95.2524°
revolutions per day: 14.14208603
mean anomaly at epoch: 264.8880°
orbit number at epoch: 71546

The dashed part of the orbit path shows where the satellite is in the earth's shadow,  

DLR